Regional Weather Roundup
Issued by NWS

Home | Current Version | Previous Version | Graphics & Text | Print | Product List | Glossary On
Versions: 1 2 3 4 5 6 7 8 9 10 11 12 13 14 15 16 17 18 19 20 21 22 23 24 25 26 27 28 29 30 31 32 33 34 35 36 37 38 39 40 41 42 43 44 45 46 47 48 49 50
000
ASUS43 KMKX 310521
RWRWI

WISCONSIN REGIONAL WEATHER ROUNDUP
NATIONAL WEATHER SERVICE MILWAUKEE/SULLIVAN WI
1200 AM CDT MON AUG 31 2015

NOTE: "FAIR" INDICATES FEW OR NO CLOUDS BELOW 12,000 FEET WITH NO
SIGNIFICANT WEATHER AND/OR OBSTRUCTIONS TO VISIBILITY.

WIZ001-002-006>008-014>016-023>028-310600-
NORTHWEST WISCONSIN

CITY           SKY/WX    TMP DP  RH WIND       PRES   REMARKS
SUPERIOR ARPT  CLEAR     67  65  93 SW7       29.88R
ASHLAND        PTCLDY    68  66  93 SW9       29.91R
HAYWARD        CLEAR     65  63  93 S7        29.95R
SIREN          CLEAR     67  65  90 S7        29.93R
CUMBERLAND     CLEAR     61  61 100 S5        29.96S
RICE LAKE      CLEAR     62  60  94 S5        29.97S
CHETEK         CLEAR    N/A N/A N/A E3        29.96S
LADYSMITH      CLEAR     63  62  96 SE3       30.00R
EAU CLAIRE     CLEAR     63  61  93 S6        29.96S
MENOMONIE      CLEAR     63  62  97 S6        29.97S
NEW RICHMOND   CLEAR     65  64  96 S7        29.95S
OSCEOLA        CLEAR     65  65 100 S6        29.96S
$$

WIZ003>005-009-010-017-018-310600-
NORTH CENTRAL WISCONSIN

CITY           SKY/WX    TMP DP  RH WIND       PRES   REMARKS
MANITOWISH WTR MOCLDY    63  63 100 S3        29.98R
ARBOR VITAE    CLEAR     63  62  96 SW3       29.99R
WOODRUFF       CLEAR     63  62  96 SW3       29.99R
RHINELANDER    CLEAR     64  62  93 SW7       30.00S
EAGLE RIVER    CLEAR     64  63  98 SW5       29.99R
LAND O LAKES   CLEAR     64  62  95 SW3       29.99S
PHILLIPS       CLEAR     62  62 100 SW5       29.98S
TOMAHAWK       FOG       60  58  96 CALM      30.00R VSB 3/4
MEDFORD        CLEAR     59  59 100 SW3       30.00S FOG
MERRILL        FOG       58  58 100 SW3       30.00S VSB 1/2
$$

WIZ029-030-035-036-043>047-310600-
CENTRAL WISCONSIN

CITY           SKY/WX    TMP DP  RH WIND       PRES   REMARKS
WAUSAU         CLEAR     65  62  90 CALM      29.99R
MOSINEE        CLEAR     61  61 100 SW3       30.01S FOG
MARSHFIELD     FOG       62  59  90 SW5       30.00S VSB 1/4
STEVENS POINT  CLEAR     62  61  99 SW3       30.01R
WAUPACA        FOG       62  61  97 CALM      30.01R VSB 1/4
WAUTOMA        FOG       59  59 100 CALM      30.01F VSB<1/4
WISC RAPIDS    FOG       61  59  93 CALM      30.01S VSB 1/2
CAMP DOUGLAS   FOG       57  57 100 E1        30.00S VSB 3/4
$$

WIZ011>013-019>022-031-037>040-048>050-310600-
NORTHEAST WISCONSIN

CITY           SKY/WX    TMP DP  RH WIND       PRES   REMARKS
ANTIGO           N/A     61  61 100 CALM      30.01S FOG
SHAWANO        CLEAR     66  64  93 CALM      29.99R
OCONTO         CLEAR     63  63 100 CALM      29.98R
STURGEON BAY   CLEAR     63  59  88 SW6       30.01S
GREEN BAY      CLEAR     62  61  96 S5        30.00R FOG
MANITOWOC      CLEAR     61  61 100 MISG      30.01S FOG
APPLETON       CLEAR     61  61 100 S7        30.00R
CLINTONVILLE   CLEAR     61  59  94 CALM      30.00R
OSHKOSH        CLEAR     60  58  92 S5        30.01R FOG
$$

WIZ032>034-041-042-053>061-310600-
SOUTHWEST WISCONSIN

CITY           SKY/WX    TMP DP  RH WIND       PRES   REMARKS
LA CROSSE      CLEAR     65  63  93 S5        29.99R
SPARTA         CLEAR     58  57  96 CALM      30.01R
VIROQUA          N/A     63  63 100 S6        30.02S
BOSCOBEL       FOG       59  58  96 CALM      30.02R VSB 1/4
PRAIRIE DU CHI PTCLDY    62  60  94 CALM      30.01S FOG
PLATTEVILLE    CLEAR     63  62  99 S6        30.03S
$$

WIZ056-057-062-063-064-067-068-310600-
SOUTH CENTRAL WISCONSIN

CITY           SKY/WX    TMP DP  RH WIND       PRES   REMARKS
REEDSBURG      CLEAR     62  62  99 CALM      30.01S
BARABOO/DELLS  CLEAR     62  60  94 CALM      30.02S FOG
LONE ROCK      CLOUDY    60  58  92 CALM      30.03R FOG
MINERAL POINT  CLEAR     64  63  94 S5        30.04R FOG
MADISON        CLEAR     66  63  90 S6        30.02S
MIDDLETON        N/A     60  60  99 CALM      30.03S VSB 1/2
WATERTOWN      CLEAR     62  62 100 S3        30.03S
MONROE         CLEAR     63  63 100 S3        30.04S
JANESVILLE     CLEAR     63  61  94 CALM      30.03S FOG
$$

WIZ051-052-058>065-066-070>072-310600-
SOUTHEAST WISCONSIN

CITY           SKY/WX    TMP DP  RH WIND       PRES   REMARKS
MILWAUKEE      CLEAR     63  61  93 SW5       30.03S FOG
WAUKESHA       CLEAR     61  61 100 SW3       30.04S
MILWAUKEE/TIMM   N/A     61  59  94 CALM      30.03S FOG
RACINE         CLOUDY    62  60  93 SW5       30.05S FOG
BURLINGTON     FOG       55  55  99 CALM      30.04S VSB 1/2
KENOSHA        FOG       61  61 100 CALM      30.04S VSB 1/4
FOND DU LAC    CLEAR     61  60  97 S5        30.02R
SHEBOYGAN      FOG       58  57  97 S5        30.02S VSB 3/4
WEST BEND      CLEAR     61  59  94 CALM      30.03S FOG
JUNEAU         CLEAR     62  61  96 S3        30.04R
$$

LSZ147-162-310600-
LAKE SUPERIOR

STATION/POSITION TIME  TEMP    WIND        PRES    WAVE
                       AIR SEA DIR/SP/G            HT/PER
                 (UTC) (F)     (DEG/KT/KT) (MB)    (FT/S)
W MID LAKE BUOY  0450   61 55  220/ 10/ 12 1011.7R   1/ 3
DEVILS ISLAND    0500   70     200/  6/  7 1011.7R
PORT WING        0400   70     200/  5/  7 1011.9S
SAXON HARBOR     0400   71     190/  9/ 17 1011.5
$$

LMZ867-665-643>646-310600-
LAKE MICHIGAN

STATION/POSITION TIME  TEMP    WIND        PRES    WAVE
                       AIR SEA DIR/SP/G            HT/PER
                 (UTC) (F)     (DEG/KT/KT) (MB)    (FT/S)
CHAMBERS ISLAND  0400   64     190/  5/ 12 1014.9R
S GREEN BAY BUOY 0300   66 63  190/ 10/ 12 1016.5S
N MID LAKE BUOY  0450   64 65  210/ 16/ 17 1014.6R   3/ 5
NORTHPORT PIER   0501   63     150/  3/  5 1014.9S
SHEBOYGAN LAKESH 0500   62     210/  7/  7 1016.6S
PORT WASHINGTON  0400   55      CALM  /  1 1017.3
ATWATER BUOY     0500   58 50  190/  6/  6 1017.9S
MILWAUKEE LAKESH 0400   64     210/  4/  4   N/A
S MID LAKE BUOY  0450   68 69  170/  6/  8 1016.8R   0
KENOSHA   LAKESH 0500   65     200/  6/  7 1016.9S
$$

TC  - TEMPERATURE IN CELSIUS
VSB - VISIBILITY IN STATUTE MILES
WCI - WIND CHILL INDEX
HX  - HEAT INDEX



USA.gov is the U.S. government's official web portal to all federal, state and local government web resources and services.